Time,TemperatureF,DewpointF,PressureIn,WindDirection,WindDirectionDegrees,WindSpeedMPH,WindSpeedGustMPH,Humidity,HourlyPrecipIn,Conditions,Clouds,dailyrainin,SoftwareType,DateUTC
2013-09-05 00:04:00,64.0,61.0,30.08,WNW,284,0.0,0.0,90,0.00,,,0.00,WeatherDisplay:10.37,2013-09-05 05:04:00,
2013-09-05 00:09:00,63.9,60.9,30.08,WNW,284,0.0,0.0,90,0.00,,,0.00,WeatherDisplay:10.37,2013-09-05 05:09:00,
2013-09-05 00:14:00,63.7,60.7,30.08,WNW,283,0.0,0.0,90,0.00,,,0.00,WeatherDisplay:10.37,2013-09-05 05:14:00,
2013-09-05 00:19:00,63.6,60.9,30.08,WNW,284,0.0,0.0,91,0.00,,,0.00,WeatherDisplay:10.37,2013-09-05 05:19:00,
2013-09-05 00:24:00,63.8,60.8,30.08,WNW,284,0.0,0.0,90,0.00,,,0.00,WeatherDisplay:10.37,2013-09-05 05:24:00,
2013-09-05 00:29:00,63.9,60.6,30.08,WNW,284,0.0,0.0,89,0.00,,,0.00,WeatherDisplay:10.37,2013-09-05 05:29:00,
2013-09-05 00:34:00,63.8,60.5,30.08,WNW,284,0.0,0.0,89,0.00,,,0.00,WeatherDisplay:10.37,2013-09-05 05:34:00,
2013-09-05 00:39:00,63.8,60.5,30.08,WNW,284,0.0,0.0,89,0.00,,,0.00,WeatherDisplay:10.37,2013-09-05 05:39:00,
2013-09-05 00:44:00,63.7,60.4,30.08,WNW,283,0.0,0.0,89,0.00,,,0.00,WeatherDisplay:10.37,2013-09-05 05:44:00,
2013-09-05 00:49:00,63.6,60.6,30.08,WNW,283,0.0,0.0,90,0.00,,,0.00,WeatherDisplay:10.37,2013-09-05 05:49:00,
2013-09-05 00:54:00,63.8,60.8,30.09,WNW,284,0.0,0.0,90,0.00,,,0.00,WeatherDisplay:10.37,2013-09-05 05:54:00,
2013-09-05 00:59:00,64.1,60.8,30.09,WNW,284,0.0,0.0,89,0.00,,,0.00,WeatherDisplay:10.37,2013-09-05 05:59:00,
2013-09-05 01:04:00,64.4,60.8,30.09,WNW,284,0.0,0.0,88,0.00,,,0.00,WeatherDisplay:10.37,2013-09-05 06:04:00,
2013-09-05 01:09:00,64.6,61.0,30.08,WNW,283,0.0,0.0,88,0.00,,,0.00,WeatherDisplay:10.37,2013-09-05 06:09:00,
2013-09-05 01:14:00,64.7,60.7,30.09,WNW,284,0.0,0.0,87,0.00,,,0.00,WeatherDisplay:10.37,2013-09-05 06:14:00,
2013-09-05 01:19:00,64.5,60.5,30.09,WNW,284,0.0,0.0,87,0.00,,,0.00,WeatherDisplay:10.37,2013-09-05 06:19:00,
2013-09-05 01:24:00,64.3,60.3,30.09,WNW,284,0.0,0.0,87,0.00,,,0.00,WeatherDisplay:10.37,2013-09-05 06:24:00,
2013-09-05 01:29:00,64.0,60.4,30.09,WNW,284,0.0,0.0,88,0.00,,,0.00,WeatherDisplay:10.37,2013-09-05 06:29:00,
2013-09-05 01:34:00,63.7,60.4,30.09,WNW,284,0.0,0.0,89,0.00,,,0.00,WeatherDisplay:10.37,2013-09-05 06:34:00,
2013-09-05 01:39:00,63.5,60.2,30.09,WNW,284,0.0,0.0,89,0.00,,,0.00,WeatherDisplay:10.37,2013-09-05 06:39:00,
2013-09-05 01:44:00,63.2,59.9,30.09,WNW,283,0.0,0.0,89,0.00,,,0.00,WeatherDisplay:10.37,2013-09-05 06:44:00,
2013-09-05 01:49:00,63.0,59.7,30.09,WNW,284,0.0,0.0,89,0.00,,,0.00,WeatherDisplay:10.37,2013-09-05 06:49:00,
2013-09-05 01:54:00,63.0,60.0,30.09,WNW,284,0.0,0.0,90,0.00,,,0.00,WeatherDisplay:10.37,2013-09-05 06:54:00,
2013-09-05 01:59:00,63.0,60.0,30.09,WNW,283,0.0,0.0,90,0.00,,,0.00,WeatherDisplay:10.37,2013-09-05 06:59:00,
2013-09-05 02:04:00,63.0,60.0,30.10,WNW,284,0.0,0.0,90,0.00,,,0.00,WeatherDisplay:10.37,2013-09-05 07:04:00,
2013-09-05 02:09:00,62.9,59.9,30.10,WNW,284,0.0,0.0,90,0.00,,,0.00,WeatherDisplay:10.37,2013-09-05 07:09:00,
2013-09-05 02:14:00,62.8,59.8,30.10,WNW,284,0.0,0.0,90,0.00,,,0.00,WeatherDisplay:10.37,2013-09-05 07:14:00,
2013-09-05 02:19:00,62.6,59.6,30.10,WNW,284,0.0,0.0,90,0.00,,,0.00,WeatherDisplay:10.37,2013-09-05 07:19:00,
2013-09-05 02:24:00,62.5,59.8,30.10,WNW,283,0.0,0.0,91,0.00,,,0.00,WeatherDisplay:10.37,2013-09-05 07:24:00,
2013-09-05 02:29:00,62.5,59.8,30.10,WNW,283,0.0,0.0,91,0.00,,,0.00,WeatherDisplay:10.37,2013-09-05 07:29:00,
2013-09-05 02:34:00,62.4,59.7,30.10,WNW,284,0.0,0.0,91,0.00,,,0.00,WeatherDisplay:10.37,2013-09-05 07:34:00,
2013-09-05 02:39:00,62.3,59.6,30.10,WNW,284,0.0,0.0,91,0.00,,,0.00,WeatherDisplay:10.37,2013-09-05 07:39:00,
2013-09-05 02:44:00,62.2,59.5,30.10,WNW,284,0.0,0.0,91,0.00,,,0.00,WeatherDisplay:10.37,2013-09-05 07:44:00,
2013-09-05 02:49:00,62.2,59.5,30.10,WNW,284,0.0,0.0,91,0.00,,,0.00,WeatherDisplay:10.37,2013-09-05 07:49:00,
2013-09-05 02:54:00,62.2,59.5,30.10,WNW,284,0.0,0.0,91,0.00,,,0.00,WeatherDisplay:10.37,2013-09-05 07:54:00,
2013-09-05 02:59:00,62.3,59.6,30.10,WNW,284,0.0,0.0,91,0.00,,,0.00,WeatherDisplay:10.37,2013-09-05 07:59:00,
2013-09-05 03:04:00,62.2,59.5,30.10,WNW,284,0.0,0.0,91,0.00,,,0.00,WeatherDisplay:10.37,2013-09-05 08:04:00,
2013-09-05 03:09:00,62.4,59.7,30.10,WNW,284,0.0,0.0,91,0.00,,,0.00,WeatherDisplay:10.37,2013-09-05 08:09:00,
2013-09-05 03:14:00,62.5,59.8,30.10,WNW,284,0.0,0.0,91,0.00,,,0.00,WeatherDisplay:10.37,2013-09-05 08:14:00,
2013-09-05 03:19:00,62.4,59.7,30.10,WNW,283,0.0,0.0,91,0.00,,,0.00,WeatherDisplay:10.37,2013-09-05 08:19:00,
2013-09-05 03:24:00,62.5,59.8,30.10,WNW,283,0.0,0.0,91,0.00,,,0.00,WeatherDisplay:10.37,2013-09-05 08:24:00,
2013-09-05 03:29:00,62.4,59.4,30.10,WNW,284,0.0,0.0,90,0.00,,,0.00,WeatherDisplay:10.37,2013-09-05 08:29:00,
2013-09-05 03:34:00,62.2,59.2,30.10,WNW,283,0.0,0.0,90,0.00,,,0.00,WeatherDisplay:10.37,2013-09-05 08:34:00,
2013-09-05 03:39:00,62.1,59.4,30.10,WNW,283,0.0,0.0,91,0.00,,,0.00,WeatherDisplay:10.37,2013-09-05 08:39:00,
2013-09-05 03:44:00,62.6,59.9,30.10,WNW,291,0.0,0.0,91,0.00,,,0.00,WeatherDisplay:10.37,2013-09-05 08:44:00,
2013-09-05 03:49:00,63.2,60.2,30.10,WNW,293,0.0,0.0,90,0.00,,,0.00,WeatherDisplay:10.37,2013-09-05 08:49:00,
2013-09-05 03:54:00,63.5,60.2,30.10,WNW,293,0.0,0.0,89,0.00,,,0.00,WeatherDisplay:10.37,2013-09-05 08:54:00,
2013-09-05 03:59:00,63.5,59.9,30.10,WNW,293,0.0,0.0,88,0.00,,,0.00,WeatherDisplay:10.37,2013-09-05 08:59:00,
2013-09-05 04:04:00,63.2,59.6,30.10,WNW,293,0.0,0.0,88,0.00,,,0.00,WeatherDisplay:10.37,2013-09-05 09:04:00,
2013-09-05 04:09:00,62.8,59.5,30.11,WNW,293,0.0,0.0,89,0.00,,,0.00,WeatherDisplay:10.37,2013-09-05 09:09:00,
2013-09-05 04:14:00,63.1,59.8,30.10,WNW,293,0.0,0.0,89,0.00,,,0.00,WeatherDisplay:10.37,2013-09-05 09:14:00,
2013-09-05 04:19:00,63.5,60.2,30.11,WNW,293,0.0,0.0,89,0.00,,,0.00,WeatherDisplay:10.37,2013-09-05 09:19:00,
2013-09-05 04:24:00,63.6,60.0,30.11,WNW,293,0.0,0.0,88,0.00,,,0.00,WeatherDisplay:10.37,2013-09-05 09:24:00,
2013-09-05 04:29:00,63.6,60.0,30.11,WNW,293,0.0,0.0,88,0.00,,,0.00,WeatherDisplay:10.37,2013-09-05 09:29:00,
2013-09-05 04:34:00,63.4,59.8,30.11,WNW,293,0.0,0.0,88,0.00,,,0.00,WeatherDisplay:10.37,2013-09-05 09:34:00,
2013-09-05 04:39:00,63.2,59.9,30.10,WNW,293,0.0,0.0,89,0.00,,,0.00,WeatherDisplay:10.37,2013-09-05 09:39:00,
2013-09-05 04:44:00,63.0,59.7,30.11,WNW,293,0.0,0.0,89,0.00,,,0.00,WeatherDisplay:10.37,2013-09-05 09:44:00,
2013-09-05 04:49:00,62.8,59.5,30.11,WNW,293,0.0,0.0,89,0.00,,,0.00,WeatherDisplay:10.37,2013-09-05 09:49:00,
2013-09-05 04:55:00,62.6,59.6,30.11,WNW,293,0.0,0.0,90,0.00,,,0.00,WeatherDisplay:10.37,2013-09-05 09:55:00,
2013-09-05 05:00:00,62.6,59.6,30.11,WNW,293,0.0,0.0,90,0.00,,,0.00,WeatherDisplay:10.37,2013-09-05 10:00:00,
2013-09-05 05:05:00,62.5,59.5,30.11,WNW,293,0.0,0.0,90,0.00,,,0.00,WeatherDisplay:10.37,2013-09-05 10:05:00,
2013-09-05 05:10:00,62.5,59.5,30.11,WNW,293,0.0,0.0,90,0.00,,,0.00,WeatherDisplay:10.37,2013-09-05 10:10:00,
2013-09-05 05:15:00,62.4,59.4,30.11,WNW,293,0.0,0.0,90,0.00,,,0.00,WeatherDisplay:10.37,2013-09-05 10:15:00,
2013-09-05 05:20:00,62.4,59.4,30.11,WNW,293,0.0,0.0,90,0.00,,,0.00,WeatherDisplay:10.37,2013-09-05 10:20:00,
2013-09-05 05:25:00,62.2,59.2,30.11,WNW,293,0.0,0.0,90,0.00,,,0.00,WeatherDisplay:10.37,2013-09-05 10:25:00,
2013-09-05 05:30:00,62.1,59.1,30.11,WNW,293,0.0,0.0,90,0.00,,,0.00,WeatherDisplay:10.37,2013-09-05 10:30:00,
2013-09-05 05:35:00,62.1,59.4,30.10,WNW,293,0.0,0.0,91,0.00,,,0.00,WeatherDisplay:10.37,2013-09-05 10:35:00,
2013-09-05 05:40:00,62.0,59.3,30.10,WNW,293,0.0,0.0,91,0.00,,,0.00,WeatherDisplay:10.37,2013-09-05 10:40:00,
2013-09-05 05:45:00,61.8,59.1,30.10,WNW,293,0.0,0.0,91,0.00,,,0.00,WeatherDisplay:10.37,2013-09-05 10:45:00,
2013-09-05 05:50:00,61.6,58.9,30.11,WNW,293,0.0,0.0,91,0.00,,,0.00,WeatherDisplay:10.37,2013-09-05 10:50:00,
2013-09-05 05:55:00,61.5,58.8,30.11,WNW,293,0.0,0.0,91,0.00,,,0.00,WeatherDisplay:10.37,2013-09-05 10:55:00,
2013-09-05 06:00:00,61.4,59.1,30.11,WNW,293,0.0,0.0,92,0.00,,,0.00,WeatherDisplay:10.37,2013-09-05 11:00:00,
2013-09-05 06:05:00,61.4,59.1,30.11,WNW,293,0.0,0.0,92,0.00,CLR,,0.00,WeatherDisplay:10.37,2013-09-05 11:05:00,
2013-09-05 06:10:00,61.4,59.1,30.11,WNW,293,0.0,0.0,92,0.00,CLR,,0.00,WeatherDisplay:10.37,2013-09-05 11:10:00,
2013-09-05 06:15:00,61.3,59.0,30.11,WNW,293,0.0,0.0,92,0.00,CLR,,0.00,WeatherDisplay:10.37,2013-09-05 11:15:00,
2013-09-05 06:20:00,61.2,58.6,30.11,WNW,293,0.0,0.0,91,0.00,CLR,,0.00,WeatherDisplay:10.37,2013-09-05 11:20:00,
2013-09-05 06:25:00,61.1,58.8,30.11,WNW,293,0.0,0.0,92,0.00,CLR,,0.00,WeatherDisplay:10.37,2013-09-05 11:25:00,
2013-09-05 06:30:00,61.0,58.7,30.11,WNW,293,0.0,0.0,92,0.00,CLR,,0.00,WeatherDisplay:10.37,2013-09-05 11:30:00,
2013-09-05 06:35:00,60.9,58.6,30.12,WNW,293,0.0,0.0,92,0.00,CLR,,0.00,WeatherDisplay:10.37,2013-09-05 11:35:00,
2013-09-05 06:40:00,61.0,58.7,30.12,WNW,293,0.0,0.0,92,0.00,CLR,,0.00,WeatherDisplay:10.37,2013-09-05 11:40:00,
2013-09-05 06:45:00,61.0,58.7,30.12,WNW,293,0.0,0.0,92,0.00,CLR,,0.00,WeatherDisplay:10.37,2013-09-05 11:45:00,
2013-09-05 06:50:00,61.0,58.7,30.12,WNW,293,0.0,0.0,92,0.00,CLR,,0.00,WeatherDisplay:10.37,2013-09-05 11:50:00,
2013-09-05 06:55:00,61.1,58.8,30.12,WNW,293,0.0,0.0,92,0.00,CLR,,0.00,WeatherDisplay:10.37,2013-09-05 11:55:00,
2013-09-05 07:00:00,61.2,58.9,30.12,WNW,293,0.0,0.0,92,0.00,CLR,,0.00,WeatherDisplay:10.37,2013-09-05 12:00:00,
2013-09-05 07:05:00,61.3,59.0,30.13,WNW,293,0.0,0.0,92,0.00,CLR,,0.00,WeatherDisplay:10.37,2013-09-05 12:05:00,
2013-09-05 07:10:00,61.6,59.6,30.13,WNW,293,0.0,0.0,93,0.00,CLR,,0.00,WeatherDisplay:10.37,2013-09-05 12:10:00,
2013-09-05 07:15:00,61.7,59.4,30.13,WNW,293,0.0,0.0,92,0.00,CLR,,0.00,WeatherDisplay:10.37,2013-09-05 12:15:00,
2013-09-05 07:20:00,61.8,59.5,30.13,WNW,292,0.0,0.0,92,0.00,CLR,,0.00,WeatherDisplay:10.37,2013-09-05 12:20:00,
2013-09-05 07:25:00,62.0,59.7,30.13,WNW,293,0.0,0.0,92,0.00,CLR,,0.00,WeatherDisplay:10.37,2013-09-05 12:25:00,
2013-09-05 07:30:00,62.6,60.2,30.14,NNE,25,2.0,3.0,92,0.00,CLR,,0.00,WeatherDisplay:10.37,2013-09-05 12:30:00,
2013-09-05 07:35:00,62.5,60.1,30.14,East,79,2.0,5.0,92,0.00,CLR,,0.00,WeatherDisplay:10.37,2013-09-05 12:35:00,
2013-09-05 07:40:00,62.7,60.3,30.14,East,80,1.3,2.3,92,0.00,CLR,,0.00,WeatherDisplay:10.37,2013-09-05 12:40:00,
2013-09-05 07:45:00,63.0,60.3,30.14,ENE,74,1.6,2.3,91,0.00,CLR,,0.00,WeatherDisplay:10.37,2013-09-05 12:45:00,
2013-09-05 07:50:00,63.3,60.6,30.14,ENE,75,0.5,2.3,91,0.00,CLR,,0.00,WeatherDisplay:10.37,2013-09-05 12:50:00,
2013-09-05 07:55:00,63.8,61.2,30.14,East,82,1.0,2.0,91,0.00,CLR,,0.00,WeatherDisplay:10.37,2013-09-05 12:55:00,
2013-09-05 08:00:00,64.6,61.6,30.14,ESE,123,1.0,1.1,90,0.00,CLR,,0.00,WeatherDisplay:10.37,2013-09-05 13:00:00,
2013-09-05 08:05:00,65.1,61.5,30.14,ESE,111,2.0,3.0,88,0.00,CLR,,0.00,WeatherDisplay:10.37,2013-09-05 13:05:00,
2013-09-05 08:10:00,66.0,62.3,30.14,ESE,113,1.0,2.0,88,0.00,CLR,,0.00,WeatherDisplay:10.37,2013-09-05 13:10:00,
2013-09-05 08:15:00,66.7,62.4,30.14,ESE,112,1.6,3.5,86,0.00,CLR,,0.00,WeatherDisplay:10.37,2013-09-05 13:15:00,
2013-09-05 08:20:00,67.4,62.4,30.15,ESE,113,1.5,2.3,84,0.00,CLR,,0.00,WeatherDisplay:10.37,2013-09-05 13:20:00,
2013-09-05 08:25:00,67.9,62.2,30.14,ESE,111,1.0,3.0,82,0.00,CLR,,0.00,WeatherDisplay:10.37,2013-09-05 13:25:00,
2013-09-05 08:30:00,68.6,62.9,30.14,ESE,110,1.6,2.3,82,0.00,CLR,,0.00,WeatherDisplay:10.37,2013-09-05 13:30:00,
2013-09-05 08:35:00,69.0,63.3,30.14,East,81,2.0,4.0,82,0.00,CLR,,0.00,WeatherDisplay:10.37,2013-09-05 13:35:00,
2013-09-05 08:40:00,69.1,63.0,30.15,ENE,70,2.0,4.0,81,0.00,CLR,,0.00,WeatherDisplay:10.37,2013-09-05 13:40:00,
2013-09-05 08:45:00,69.5,63.4,30.15,ENE,65,2.1,3.0,81,0.00,CLR,,0.00,WeatherDisplay:10.37,2013-09-05 13:45:00,
2013-09-05 08:50:00,69.9,63.4,30.14,East,80,1.0,3.0,80,0.00,CLR,,0.00,WeatherDisplay:10.37,2013-09-05 13:50:00,
2013-09-05 08:55:00,70.9,63.7,30.15,East,81,1.7,3.0,78,0.00,CLR,,0.00,WeatherDisplay:10.37,2013-09-05 13:55:00,
2013-09-05 09:00:00,71.4,63.8,30.15,ENE,68,2.4,3.5,77,0.00,CLR,,0.00,WeatherDisplay:10.37,2013-09-05 14:00:00,
2013-09-05 09:05:00,71.8,64.2,30.15,NE,55,1.5,3.5,77,0.00,CLR,,0.00,WeatherDisplay:10.37,2013-09-05 14:05:00,
2013-09-05 09:10:00,72.4,64.4,30.15,ENE,61,2.0,3.0,76,0.00,CLR,,0.00,WeatherDisplay:10.37,2013-09-05 14:10:00,
2013-09-05 09:15:00,73.1,64.7,30.15,ENE,77,1.6,3.0,75,0.00,CLR,,0.00,WeatherDisplay:10.37,2013-09-05 14:15:00,
2013-09-05 09:20:00,73.3,64.5,30.15,ESE,113,1.4,3.5,74,0.00,CLR,,0.00,WeatherDisplay:10.37,2013-09-05 14:20:00,
2013-09-05 09:25:00,74.0,64.4,30.15,East,80,1.0,3.0,72,0.00,CLR,,0.00,WeatherDisplay:10.37,2013-09-05 14:25:00,
2013-09-05 09:30:00,74.1,64.1,30.15,East,93,3.0,5.0,71,0.00,CLR,,0.00,WeatherDisplay:10.37,2013-09-05 14:30:00,
2013-09-05 09:35:00,74.3,64.7,30.15,ESE,117,2.4,3.5,72,0.00,CLR,,0.00,WeatherDisplay:10.37,2013-09-05 14:35:00,
2013-09-05 09:40:00,75.2,64.3,30.15,East,90,2.0,5.0,69,0.00,CLR,,0.00,WeatherDisplay:10.37,2013-09-05 14:40:00,
2013-09-05 09:45:00,75.5,64.2,30.15,ENE,59,1.0,5.0,68,0.00,CLR,,0.00,WeatherDisplay:10.37,2013-09-05 14:45:00,
2013-09-05 09:50:00,75.9,65.0,30.15,NE,55,3.8,4.6,69,0.00,CLR,,0.00,WeatherDisplay:10.37,2013-09-05 14:50:00,
2013-09-05 09:55:00,76.3,64.6,30.15,NE,55,3.0,6.0,67,0.00,CLR,,0.00,WeatherDisplay:10.37,2013-09-05 14:55:00,
2013-09-05 10:00:00,76.4,64.2,30.16,NE,51,3.0,5.0,66,0.00,CLR,,0.00,WeatherDisplay:10.37,2013-09-05 15:00:00,
2013-09-05 10:05:00,76.8,65.5,30.16,NE,51,3.0,6.0,68,0.00,CLR,,0.00,WeatherDisplay:10.37,2013-09-05 15:05:00,
2013-09-05 10:10:00,77.2,64.1,30.16,NE,50,5.0,7.0,64,0.00,CLR,,0.00,WeatherDisplay:10.37,2013-09-05 15:10:00,
2013-09-05 10:15:00,77.3,64.6,30.16,ENE,57,5.0,7.0,65,0.00,CLR,,0.00,WeatherDisplay:10.37,2013-09-05 15:15:00,
2013-09-05 10:20:00,77.5,64.8,30.16,NE,55,3.0,7.0,65,0.00,CLR,,0.00,WeatherDisplay:10.37,2013-09-05 15:20:00,
2013-09-05 10:25:00,77.9,65.6,30.16,ENE,71,1.0,5.0,66,0.00,CLR,,0.00,WeatherDisplay:10.37,2013-09-05 15:25:00,
2013-09-05 10:30:00,78.7,65.0,30.16,ENE,66,2.0,7.0,63,0.00,CLR,,0.00,WeatherDisplay:10.37,2013-09-05 15:30:00,
2013-09-05 10:35:00,79.4,65.7,30.16,East,88,3.0,5.0,63,0.00,CLR,,0.00,WeatherDisplay:10.37,2013-09-05 15:35:00,
2013-09-05 10:40:00,80.1,66.4,30.16,SE,129,2.5,3.5,63,0.00,CLR,,0.00,WeatherDisplay:10.37,2013-09-05 15:40:00,
2013-09-05 10:45:00,80.5,67.2,30.16,NE,53,1.5,3.5,64,0.00,CLR,,0.00,WeatherDisplay:10.37,2013-09-05 15:45:00,
2013-09-05 10:50:00,81.1,65.9,30.16,East,92,3.4,4.6,60,0.00,CLR,,0.00,WeatherDisplay:10.37,2013-09-05 15:50:00,
2013-09-05 10:55:00,81.5,65.8,30.16,East,95,1.0,5.0,59,0.00,CLR,,0.00,WeatherDisplay:10.37,2013-09-05 15:55:00,
2013-09-05 11:00:00,81.6,65.8,30.16,ENE,74,5.0,6.0,59,0.00,CLR,,0.00,WeatherDisplay:10.37,2013-09-05 16:00:00,
2013-09-05 11:05:00,80.8,65.6,30.16,ENE,76,1.0,5.0,60,0.00,CLR,,0.00,WeatherDisplay:10.37,2013-09-05 16:05:00,
2013-09-05 11:10:00,81.1,65.9,30.16,ENE,58,3.2,4.6,60,0.00,CLR,,0.00,WeatherDisplay:10.37,2013-09-05 16:10:00,
2013-09-05 11:15:00,81.2,65.9,30.16,ENE,70,2.0,7.0,60,0.00,CLR,,0.00,WeatherDisplay:10.37,2013-09-05 16:15:00,
2013-09-05 11:20:00,81.8,66.6,30.16,ENE,62,2.0,4.0,60,0.00,CLR,,0.00,WeatherDisplay:10.37,2013-09-05 16:20:00,
2013-09-05 11:25:00,82.3,66.5,30.16,ENE,61,3.5,3.5,59,0.00,CLR,,0.00,WeatherDisplay:10.37,2013-09-05 16:25:00,
2013-09-05 11:30:00,82.1,66.3,30.16,ENE,60,2.0,6.0,59,0.00,CLR,,0.00,WeatherDisplay:10.37,2013-09-05 16:30:00,
2013-09-05 11:35:00,82.4,66.6,30.16,East,89,2.0,4.6,59,0.00,CLR,,0.00,WeatherDisplay:10.37,2013-09-05 16:35:00,
2013-09-05 11:40:00,83.0,67.7,30.16,ENE,62,2.3,7.0,60,0.00,CLR,,0.00,WeatherDisplay:10.37,2013-09-05 16:40:00,
2013-09-05 11:45:00,83.2,67.4,30.16,ENE,66,2.0,7.0,59,0.00,CLR,,0.00,WeatherDisplay:10.37,2013-09-05 16:45:00,
2013-09-05 11:50:00,83.1,66.3,30.16,ENE,72,2.6,5.8,57,0.00,CLR,,0.00,WeatherDisplay:10.37,2013-09-05 16:50:00,
2013-09-05 11:55:00,83.2,67.9,30.16,East,90,2.0,5.0,60,0.00,CLR,,0.00,WeatherDisplay:10.37,2013-09-05 16:55:00,
2013-09-05 12:00:00,84.1,67.7,30.16,East,97,1.0,5.0,58,0.00,CLR,,0.00,WeatherDisplay:10.37,2013-09-05 17:00:00,
2013-09-05 12:05:00,84.7,67.3,30.16,SSE,148,2.3,4.0,56,0.00,CLR,,0.00,WeatherDisplay:10.37,2013-09-05 17:05:00,
2013-09-05 12:10:00,84.9,66.9,30.16,East,89,2.9,4.6,55,0.00,CLR,,0.00,WeatherDisplay:10.37,2013-09-05 17:10:00,
2013-09-05 12:15:00,84.9,67.4,30.16,ESE,118,5.0,7.0,56,0.00,CLR,,0.00,WeatherDisplay:10.37,2013-09-05 17:15:00,
2013-09-05 12:20:00,84.8,67.4,30.16,ESE,113,4.0,7.0,56,0.00,CLR,,0.00,WeatherDisplay:10.37,2013-09-05 17:20:00,
2013-09-05 12:25:00,84.6,67.2,30.16,SE,139,2.9,3.5,56,0.00,CLR,,0.00,WeatherDisplay:10.37,2013-09-05 17:25:00,
2013-09-05 12:30:00,84.8,67.4,30.16,ESE,120,3.5,5.8,56,0.00,CLR,,0.00,WeatherDisplay:10.37,2013-09-05 17:30:00,
2013-09-05 12:35:00,85.0,68.6,30.16,East,92,4.2,4.6,58,0.00,CLR,,0.00,WeatherDisplay:10.37,2013-09-05 17:35:00,
2013-09-05 12:40:00,85.6,68.6,30.16,East,81,4.6,9.2,57,0.00,CLR,,0.00,WeatherDisplay:10.37,2013-09-05 17:40:00,
2013-09-05 12:45:00,85.5,68.0,30.15,SE,127,5.2,6.9,56,0.00,CLR,,0.00,WeatherDisplay:10.37,2013-09-05 17:45:00,
2013-09-05 12:50:00,84.9,67.5,30.15,SE,135,3.9,6.9,56,0.00,CLR,,0.00,WeatherDisplay:10.37,2013-09-05 17:50:00,
2013-09-05 12:55:00,84.9,67.5,30.15,SE,146,3.4,4.6,56,0.00,CLR,,0.00,WeatherDisplay:10.37,2013-09-05 17:55:00,
2013-09-05 13:00:00,85.2,68.8,30.15,ENE,60,3.7,6.9,58,0.00,CLR,,0.00,WeatherDisplay:10.37,2013-09-05 18:00:00,
2013-09-05 13:05:00,85.6,67.6,30.15,East,94,3.8,4.6,55,0.00,CLR,,0.00,WeatherDisplay:10.37,2013-09-05 18:05:00,
2013-09-05 13:10:00,85.5,68.5,30.15,SE,127,5.9,8.1,57,0.00,CLR,,0.00,WeatherDisplay:10.37,2013-09-05 18:10:00,
2013-09-05 13:15:00,86.1,70.1,30.15,ESE,120,1.6,3.5,59,0.00,CLR,,0.00,WeatherDisplay:10.37,2013-09-05 18:15:00,
2013-09-05 13:20:00,86.9,70.3,30.15,ESE,110,4.1,5.8,58,0.00,CLR,,0.00,WeatherDisplay:10.37,2013-09-05 18:20:00,
2013-09-05 13:25:00,86.5,68.9,30.14,SSW,203,1.5,3.5,56,0.00,CLR,,0.00,WeatherDisplay:10.37,2013-09-05 18:25:00,
2013-09-05 13:30:00,86.4,68.8,30.15,SE,132,5.0,6.9,56,0.00,CLR,,0.00,WeatherDisplay:10.37,2013-09-05 18:30:00,
2013-09-05 13:35:00,86.5,69.5,30.15,NE,51,2.9,5.8,57,0.00,CLR,,0.00,WeatherDisplay:10.37,2013-09-05 18:35:00,
2013-09-05 13:40:00,86.6,68.5,30.14,SSE,164,0.5,1.1,55,0.00,CLR,,0.00,WeatherDisplay:10.37,2013-09-05 18:40:00,
2013-09-05 13:45:00,86.6,68.5,30.14,East,98,4.8,8.0,55,0.00,CLR,,0.00,WeatherDisplay:10.37,2013-09-05 18:45:00,
2013-09-05 13:50:00,86.6,69.6,30.14,ESE,123,1.8,4.0,57,0.00,CLR,,0.00,WeatherDisplay:10.37,2013-09-05 18:50:00,
2013-09-05 13:55:00,86.7,68.6,30.14,ESE,113,3.8,5.8,55,0.00,CLR,,0.00,WeatherDisplay:10.37,2013-09-05 18:55:00,
2013-09-05 14:00:00,86.9,68.8,30.13,East,90,2.0,5.0,55,0.00,CLR,,0.00,WeatherDisplay:10.37,2013-09-05 19:00:00,
2013-09-05 14:05:00,86.7,68.6,30.13,ESE,105,3.0,4.0,55,0.00,CLR,,0.00,WeatherDisplay:10.37,2013-09-05 19:05:00,
2013-09-05 14:10:00,86.7,69.1,30.13,ESE,117,2.5,5.8,56,0.00,CLR,,0.00,WeatherDisplay:10.37,2013-09-05 19:10:00,
2013-09-05 14:15:00,87.4,69.3,30.13,East,94,1.3,3.5,55,0.00,CLR,,0.00,WeatherDisplay:10.37,2013-09-05 19:15:00,
2013-09-05 14:20:00,87.3,69.2,30.12,SE,131,4.6,8.1,55,0.00,CLR,,0.00,WeatherDisplay:10.37,2013-09-05 19:20:00,
2013-09-05 14:25:00,87.3,69.2,30.12,East,94,3.1,8.0,55,0.00,CLR,,0.00,WeatherDisplay:10.37,2013-09-05 19:25:00,
2013-09-05 14:30:00,86.9,69.3,30.12,ESE,108,3.5,5.8,56,0.00,CLR,,0.00,WeatherDisplay:10.37,2013-09-05 19:30:00,
2013-09-05 14:35:00,87.0,68.3,30.12,SE,134,1.4,2.3,54,0.00,CLR,,0.00,WeatherDisplay:10.37,2013-09-05 19:35:00,
2013-09-05 14:40:00,87.6,68.9,30.12,SE,134,2.1,3.5,54,0.00,CLR,,0.00,WeatherDisplay:10.37,2013-09-05 19:40:00,
2013-09-05 14:45:00,88.2,69.5,30.12,SE,124,3.3,5.8,54,0.00,CLR,,0.00,WeatherDisplay:10.37,2013-09-05 19:45:00,
2013-09-05 14:50:00,87.9,69.2,30.11,NE,52,1.7,3.5,54,0.00,CLR,,0.00,WeatherDisplay:10.37,2013-09-05 19:50:00,
2013-09-05 14:55:00,87.7,69.5,30.11,SE,139,2.4,4.0,55,0.00,CLR,,0.00,WeatherDisplay:10.37,2013-09-05 19:55:00,
2013-09-05 15:00:00,88.0,69.8,30.11,ESE,117,4.0,5.0,55,0.00,CLR,,0.00,WeatherDisplay:10.37,2013-09-05 20:00:00,
2013-09-05 15:05:00,88.1,68.3,30.11,East,101,3.2,4.6,52,0.00,CLR,,0.00,WeatherDisplay:10.37,2013-09-05 20:05:00,
2013-09-05 15:10:00,88.1,69.4,30.11,SSE,150,3.6,4.6,54,0.00,CLR,,0.00,WeatherDisplay:10.37,2013-09-05 20:10:00,
2013-09-05 15:15:00,88.6,68.2,30.11,SE,139,1.7,3.5,51,0.00,CLR,,0.00,WeatherDisplay:10.37,2013-09-05 20:15:00,
2013-09-05 15:20:00,88.9,68.4,30.11,ESE,117,1.9,3.5,51,0.00,CLR,,0.00,WeatherDisplay:10.37,2013-09-05 20:20:00,
2013-09-05 15:25:00,88.9,69.0,30.11,SE,128,2.4,3.5,52,0.00,CLR,,0.00,WeatherDisplay:10.37,2013-09-05 20:25:00,
2013-09-05 15:30:00,88.8,67.8,30.11,ESE,122,4.3,5.8,50,0.00,CLR,,0.00,WeatherDisplay:10.37,2013-09-05 20:30:00,
2013-09-05 15:35:00,88.7,68.2,30.11,SSW,198,0.9,3.5,51,0.00,CLR,,0.00,WeatherDisplay:10.37,2013-09-05 20:35:00,
2013-09-05 15:40:00,88.8,68.3,30.11,NE,49,0.8,3.5,51,0.00,CLR,,0.00,WeatherDisplay:10.37,2013-09-05 20:40:00,
2013-09-05 15:45:00,89.0,69.1,30.11,ESE,122,1.0,1.1,52,0.00,CLR,,0.00,WeatherDisplay:10.37,2013-09-05 20:45:00,
2013-09-05 15:51:00,89.4,68.3,30.11,SE,139,2.9,5.8,50,0.00,CLR,,0.00,WeatherDisplay:10.37,2013-09-05 20:51:00,
2013-09-05 15:56:00,88.9,67.9,30.11,North,349,1.0,3.5,50,0.00,CLR,,0.00,WeatherDisplay:10.37,2013-09-05 20:56:00,
2013-09-05 16:01:00,89.3,69.9,30.11,NE,53,2.0,3.5,53,0.00,CLR,,0.00,WeatherDisplay:10.37,2013-09-05 21:01:00,
2013-09-05 16:06:00,88.8,68.9,30.11,SE,129,3.8,5.8,52,0.00,CLR,,0.00,WeatherDisplay:10.37,2013-09-05 21:06:00,
2013-09-05 16:11:00,88.7,68.2,30.11,ESE,103,0.6,1.1,51,0.00,CLR,,0.00,WeatherDisplay:10.37,2013-09-05 21:11:00,
2013-09-05 16:16:00,89.3,70.5,30.11,ESE,111,4.4,5.0,54,0.00,CLR,,0.00,WeatherDisplay:10.37,2013-09-05 21:16:00,
2013-09-05 16:21:00,88.6,71.4,30.11,East,98,4.0,6.9,57,0.00,CLR,,0.00,WeatherDisplay:10.37,2013-09-05 21:21:00,
2013-09-05 16:26:00,87.4,70.8,30.11,ESE,118,7.9,9.2,58,0.00,CLR,,0.00,WeatherDisplay:10.37,2013-09-05 21:26:00,
2013-09-05 16:31:00,87.0,71.4,30.11,ESE,116,6.6,9.2,60,0.00,CLR,,0.00,WeatherDisplay:10.37,2013-09-05 21:31:00,
2013-09-05 16:36:00,86.4,71.4,30.11,ESE,107,4.6,6.9,61,0.00,CLR,,0.00,WeatherDisplay:10.37,2013-09-05 21:36:00,
2013-09-05 16:41:00,86.2,71.6,30.11,ESE,113,7.4,8.1,62,0.00,CLR,,0.00,WeatherDisplay:10.37,2013-09-05 21:41:00,
2013-09-05 16:46:00,85.7,71.2,30.11,ESE,114,5.3,6.9,62,0.00,CLR,,0.00,WeatherDisplay:10.37,2013-09-05 21:46:00,
2013-09-05 16:51:00,85.3,70.8,30.10,ESE,108,5.4,6.9,62,0.00,CLR,,0.00,WeatherDisplay:10.37,2013-09-05 21:51:00,
2013-09-05 16:56:00,84.7,71.2,30.11,East,101,4.1,6.9,64,0.00,CLR,,0.00,WeatherDisplay:10.37,2013-09-05 21:56:00,
2013-09-05 17:01:00,84.3,71.2,30.11,SE,124,3.3,6.0,65,0.00,CLR,,0.00,WeatherDisplay:10.37,2013-09-05 22:01:00,
2013-09-05 17:06:00,83.9,71.8,30.11,SE,131,2.6,8.1,67,0.00,CLR,,0.00,WeatherDisplay:10.37,2013-09-05 22:06:00,
2013-09-05 17:11:00,83.6,71.5,30.11,East,96,4.7,5.8,67,0.00,CLR,,0.00,WeatherDisplay:10.37,2013-09-05 22:11:00,
2013-09-05 17:16:00,83.3,71.6,30.10,SE,134,5.0,6.0,68,0.00,CLR,,0.00,WeatherDisplay:10.37,2013-09-05 22:16:00,
2013-09-05 17:21:00,83.0,71.8,30.10,ESE,105,5.6,7.0,69,0.00,CLR,,0.00,WeatherDisplay:10.37,2013-09-05 22:21:00,
2013-09-05 17:26:00,82.6,71.4,30.11,ESE,117,6.0,11.5,69,0.00,CLR,,0.00,WeatherDisplay:10.37,2013-09-05 22:26:00,
2013-09-05 17:31:00,82.3,71.5,30.11,ESE,114,6.8,9.2,70,0.00,CLR,,0.00,WeatherDisplay:10.37,2013-09-05 22:31:00,
2013-09-05 17:36:00,82.0,71.7,30.11,ESE,110,6.2,9.2,71,0.00,CLR,,0.00,WeatherDisplay:10.37,2013-09-05 22:36:00,
2013-09-05 17:41:00,81.7,71.4,30.11,East,94,7.2,10.4,71,0.00,CLR,,0.00,WeatherDisplay:10.37,2013-09-05 22:41:00,
2013-09-05 17:46:00,81.6,71.3,30.10,ESE,113,9.4,12.7,71,0.00,CLR,,0.00,WeatherDisplay:10.37,2013-09-05 22:46:00,
2013-09-05 17:51:00,81.4,70.7,30.11,ESE,113,8.7,11.5,70,0.00,CLR,,0.00,WeatherDisplay:10.37,2013-09-05 22:51:00,
2013-09-05 17:56:00,81.0,70.3,30.11,ESE,111,8.2,11.0,70,0.00,CLR,,0.00,WeatherDisplay:10.37,2013-09-05 22:56:00,
2013-09-05 18:01:00,80.7,70.0,30.11,East,100,8.2,10.4,70,0.00,CLR,,0.00,WeatherDisplay:10.37,2013-09-05 23:01:00,
2013-09-05 18:06:00,80.5,70.2,30.11,East,79,5.8,8.1,71,0.00,CLR,,0.00,WeatherDisplay:10.37,2013-09-05 23:06:00,
2013-09-05 18:11:00,79.9,69.2,30.10,East,94,9.0,12.7,70,0.00,CLR,,0.00,WeatherDisplay:10.37,2013-09-05 23:11:00,
2013-09-05 18:16:00,79.4,69.2,30.10,East,90,8.0,10.4,71,0.00,CLR,,0.00,WeatherDisplay:10.37,2013-09-05 23:16:00,
2013-09-05 18:21:00,79.2,69.4,30.10,ESE,107,3.7,8.1,72,0.00,CLR,,0.00,WeatherDisplay:10.37,2013-09-05 23:21:00,
2013-09-05 18:26:00,79.0,68.8,30.10,East,100,7.2,11.0,71,0.00,CLR,,0.00,WeatherDisplay:10.37,2013-09-05 23:26:00,
2013-09-05 18:31:00,78.8,69.0,30.11,ESE,117,3.2,8.1,72,0.00,CLR,,0.00,WeatherDisplay:10.37,2013-09-05 23:31:00,
2013-09-05 18:36:00,78.5,67.9,30.11,ENE,68,7.7,11.5,70,0.00,CLR,,0.00,WeatherDisplay:10.37,2013-09-05 23:36:00,
2013-09-05 18:41:00,78.0,67.4,30.10,East,82,7.1,10.4,70,0.00,CLR,,0.00,WeatherDisplay:10.37,2013-09-05 23:41:00,
2013-09-05 18:46:00,77.5,66.5,30.11,ESE,102,9.5,12.7,69,0.00,CLR,,0.00,WeatherDisplay:10.37,2013-09-05 23:46:00,
2013-09-05 18:51:00,77.1,66.6,30.11,ESE,114,5.0,9.2,70,0.00,CLR,,0.00,WeatherDisplay:10.37,2013-09-05 23:51:00,
2013-09-05 18:56:00,76.7,66.6,30.11,ESE,103,3.5,4.6,71,0.00,CLR,,0.00,WeatherDisplay:10.37,2013-09-05 23:56:00,
2013-09-05 19:01:00,76.3,66.2,30.11,ESE,123,6.1,10.4,71,0.00,CLR,,0.00,WeatherDisplay:10.37,2013-09-06 00:01:00,
2013-09-05 19:06:00,75.9,65.8,30.11,East,100,5.2,11.5,71,0.00,CLR,,0.00,WeatherDisplay:10.37,2013-09-06 00:06:00,
2013-09-05 19:11:00,75.5,65.4,30.11,ENE,73,5.3,6.9,71,0.00,CLR,,0.00,WeatherDisplay:10.37,2013-09-06 00:11:00,
2013-09-05 19:16:00,75.1,65.1,30.11,ESE,108,1.7,3.5,71,0.00,CLR,,0.00,WeatherDisplay:10.37,2013-09-06 00:16:00,
2013-09-05 19:21:00,74.7,64.3,30.11,ESE,123,5.3,10.4,70,0.00,CLR,,0.00,WeatherDisplay:10.37,2013-09-06 00:21:00,
2013-09-05 19:26:00,74.3,64.3,30.11,ENE,75,1.6,3.5,71,0.00,CLR,,0.00,WeatherDisplay:10.37,2013-09-06 00:26:00,
2013-09-05 19:31:00,73.9,63.9,30.11,ENE,73,4.6,6.9,71,0.00,CLR,,0.00,WeatherDisplay:10.37,2013-09-06 00:31:00,
2013-09-05 19:36:00,73.6,64.0,30.11,East,96,4.9,6.9,72,0.00,CLR,,0.00,WeatherDisplay:10.37,2013-09-06 00:36:00,
2013-09-05 19:41:00,73.3,63.7,30.11,East,79,4.5,5.8,72,0.00,CLR,,0.00,WeatherDisplay:10.37,2013-09-06 00:41:00,
2013-09-05 19:46:00,72.9,63.7,30.11,East,89,3.9,6.9,73,0.00,CLR,,0.00,WeatherDisplay:10.37,2013-09-06 00:46:00,
2013-09-05 19:51:00,72.6,63.8,30.11,East,101,3.0,5.8,74,0.00,CLR,,0.00,WeatherDisplay:10.37,2013-09-06 00:51:00,
2013-09-05 19:56:00,72.2,63.8,30.11,ESE,120,3.4,6.0,75,0.00,CLR,,0.00,WeatherDisplay:10.37,2013-09-06 00:56:00,
2013-09-05 20:01:00,71.9,63.5,30.12,ESE,112,3.6,4.6,75,0.00,,,0.00,WeatherDisplay:10.37,2013-09-06 01:01:00,
2013-09-05 20:06:00,71.7,63.4,30.11,ESE,120,4.6,8.1,75,0.00,,,0.00,WeatherDisplay:10.37,2013-09-06 01:06:00,
2013-09-05 20:11:00,71.5,63.2,30.12,East,100,4.7,8.1,75,0.00,,,0.00,WeatherDisplay:10.37,2013-09-06 01:11:00,
2013-09-05 20:16:00,71.3,63.0,30.12,ESE,115,5.3,6.9,75,0.00,,,0.00,WeatherDisplay:10.37,2013-09-06 01:16:00,
2013-09-05 20:21:00,71.0,63.1,30.12,East,94,5.8,8.1,76,0.00,,,0.00,WeatherDisplay:10.37,2013-09-06 01:21:00,
2013-09-05 20:26:00,70.7,62.8,30.12,SE,125,5.2,5.8,76,0.00,,,0.00,WeatherDisplay:10.37,2013-09-06 01:26:00,
2013-09-05 20:31:00,70.5,62.9,30.12,East,98,5.6,6.9,77,0.00,,,0.00,WeatherDisplay:10.37,2013-09-06 01:31:00,
2013-09-05 20:36:00,70.2,62.3,30.13,ESE,105,6.3,8.1,76,0.00,,,0.00,WeatherDisplay:10.37,2013-09-06 01:36:00,
2013-09-05 20:42:00,70.0,62.1,30.12,ESE,117,5.2,8.1,76,0.00,,,0.00,WeatherDisplay:10.37,2013-09-06 01:42:00,
2013-09-05 20:47:00,69.8,61.9,30.13,ESE,103,5.5,8.1,76,0.00,,,0.00,WeatherDisplay:10.37,2013-09-06 01:47:00,
2013-09-05 20:52:00,69.7,61.8,30.13,ESE,110,4.7,6.9,76,0.00,,,0.00,WeatherDisplay:10.37,2013-09-06 01:52:00,
2013-09-05 20:57:00,69.5,62.0,30.13,East,91,4.7,6.9,77,0.00,,,0.00,WeatherDisplay:10.37,2013-09-06 01:57:00,
2013-09-05 21:02:00,69.2,61.7,30.13,ESE,112,4.8,6.9,77,0.00,,,0.00,WeatherDisplay:10.37,2013-09-06 02:02:00,
2013-09-05 21:07:00,69.0,61.5,30.14,ESE,115,4.7,5.8,77,0.00,,,0.00,WeatherDisplay:10.37,2013-09-06 02:07:00,
2013-09-05 21:12:00,68.9,61.8,30.14,ESE,108,3.4,4.6,78,0.00,,,0.00,WeatherDisplay:10.37,2013-09-06 02:12:00,
2013-09-05 21:17:00,68.6,61.5,30.14,ESE,115,3.1,4.6,78,0.00,,,0.00,WeatherDisplay:10.37,2013-09-06 02:17:00,
2013-09-05 21:22:00,68.4,61.3,30.14,ESE,110,3.6,4.6,78,0.00,,,0.00,WeatherDisplay:10.37,2013-09-06 02:22:00,
2013-09-05 21:27:00,68.2,61.4,30.14,East,97,3.6,3.6,79,0.00,,,0.00,WeatherDisplay:10.37,2013-09-06 02:27:00,
2013-09-05 21:32:00,68.0,61.2,30.14,East,95,3.0,3.5,79,0.00,,,0.00,WeatherDisplay:10.37,2013-09-06 02:32:00,
2013-09-05 21:37:00,67.8,61.4,30.14,ESE,117,3.3,4.0,80,0.00,,,0.00,WeatherDisplay:10.37,2013-09-06 02:37:00,
2013-09-05 21:42:00,67.6,61.2,30.14,ESE,115,1.8,3.5,80,0.00,,,0.00,WeatherDisplay:10.37,2013-09-06 02:42:00,
2013-09-05 21:47:00,67.4,61.4,30.14,ESE,110,1.8,3.5,81,0.00,,,0.00,WeatherDisplay:10.37,2013-09-06 02:47:00,
2013-09-05 21:52:00,67.2,61.2,30.14,ESE,114,2.3,3.5,81,0.00,,,0.00,WeatherDisplay:10.37,2013-09-06 02:52:00,
2013-09-05 21:57:00,67.0,61.3,30.14,East,98,2.3,3.5,82,0.00,,,0.00,WeatherDisplay:10.37,2013-09-06 02:57:00,
2013-09-05 22:02:00,66.8,61.1,30.15,ESE,113,0.2,1.1,82,0.00,,,0.00,WeatherDisplay:10.37,2013-09-06 03:02:00,
2013-09-05 22:07:00,66.5,61.2,30.15,ESE,117,0.4,1.1,83,0.00,,,0.00,WeatherDisplay:10.37,2013-09-06 03:07:00,
2013-09-05 22:12:00,66.3,61.0,30.15,East,101,1.3,2.3,83,0.00,,,0.00,WeatherDisplay:10.37,2013-09-06 03:12:00,
2013-09-05 22:17:00,66.2,60.9,30.15,ESE,107,1.4,2.3,83,0.00,,,0.00,WeatherDisplay:10.37,2013-09-06 03:17:00,
2013-09-05 22:22:00,66.1,61.1,30.15,ESE,112,1.3,2.3,84,0.00,,,0.00,WeatherDisplay:10.37,2013-09-06 03:22:00,
2013-09-05 22:27:00,65.9,60.9,30.15,ESE,111,1.0,1.1,84,0.00,,,0.00,WeatherDisplay:10.37,2013-09-06 03:27:00,
2013-09-05 22:32:00,65.7,60.7,30.15,NE,44,0.8,2.3,84,0.00,,,0.00,WeatherDisplay:10.37,2013-09-06 03:32:00,
2013-09-05 22:37:00,65.5,60.9,30.15,East,84,0.4,1.1,85,0.00,,,0.00,WeatherDisplay:10.37,2013-09-06 03:37:00,
2013-09-05 22:42:00,65.4,60.8,30.15,ESE,110,0.6,2.0,85,0.00,,,0.00,WeatherDisplay:10.37,2013-09-06 03:42:00,
2013-09-05 22:47:00,65.3,60.7,30.15,ESE,110,1.6,2.3,85,0.00,,,0.00,WeatherDisplay:10.37,2013-09-06 03:47:00,
2013-09-05 22:52:00,65.2,60.6,30.15,ESE,110,1.2,2.3,85,0.00,,,0.00,WeatherDisplay:10.37,2013-09-06 03:52:00,
2013-09-05 22:57:00,65.1,60.5,30.15,SE,135,0.9,2.3,85,0.00,,,0.00,WeatherDisplay:10.37,2013-09-06 03:57:00,
2013-09-05 23:01:00,65.1,60.5,30.15,ENE,70,0.1,2.3,85,0.00,,,0.00,WeatherDisplay:10.37,2013-09-06 04:01:00,
2013-09-05 23:02:00,65.0,60.4,30.15,ENE,71,0.2,1.0,85,0.00,,,0.00,WeatherDisplay:10.37,2013-09-06 04:02:00,
2013-09-05 23:07:00,64.9,60.3,30.15,ENE,71,0.5,2.3,85,0.00,,,0.00,WeatherDisplay:10.37,2013-09-06 04:07:00,
2013-09-05 23:12:00,64.8,60.2,30.15,East,99,1.3,2.3,85,0.00,,,0.00,WeatherDisplay:10.37,2013-09-06 04:12:00,
2013-09-05 23:17:00,64.7,60.1,30.15,ENE,60,1.4,2.3,85,0.00,,,0.00,WeatherDisplay:10.37,2013-09-06 04:17:00,
2013-09-05 23:22:00,64.6,60.0,30.15,ENE,76,0.2,1.0,85,0.00,,,0.00,WeatherDisplay:10.37,2013-09-06 04:22:00,
2013-09-05 23:27:00,64.5,59.9,30.15,ENE,67,0.8,2.3,85,0.00,,,0.00,WeatherDisplay:10.37,2013-09-06 04:27:00,
2013-09-05 23:32:00,64.3,59.7,30.15,ESE,114,1.3,2.3,85,0.00,,,0.00,WeatherDisplay:10.37,2013-09-06 04:32:00,
2013-09-05 23:37:00,64.3,59.4,30.15,East,93,1.7,3.5,84,0.00,,,0.00,WeatherDisplay:10.37,2013-09-06 04:37:00,
2013-09-05 23:42:00,64.2,59.3,30.15,ESE,102,2.0,2.3,84,0.00,,,0.00,WeatherDisplay:10.37,2013-09-06 04:42:00,
2013-09-05 23:47:00,64.1,59.2,30.16,ESE,103,2.1,3.5,84,0.00,,,0.00,WeatherDisplay:10.37,2013-09-06 04:47:00,
2013-09-05 23:52:00,64.1,59.2,30.15,ESE,120,2.1,3.5,84,0.00,,,0.00,WeatherDisplay:10.37,2013-09-06 04:52:00,
2013-09-05 23:57:00,63.9,59.0,30.15,ESE,114,1.8,3.5,84,0.00,,,0.00,WeatherDisplay:10.37,2013-09-06 04:57:00,